{"data":{"norad_id":57117,"intl_designator":"2023-090S","name":"STARLINK-6148","alt_names":[],"object_type":"PAYLOAD","status":"ACTIVE","operator":null,"country":"US","launch_date":"2023-06-23","launch_site_code":"AFETR","launch_vehicle":null,"mission":null,"orbit_class":"UNKNOWN","rcs_meters":null,"size_class":null,"mass_kg":null,"dimensions":null,"purposes":["comms"],"wikipedia_slug":null,"has_3d_model":false,"image_url":null,"decayed_at":null,"tle_current":{"epoch":"2026-09-20T11:03:16.728192Z","epoch_age_seconds":124378,"freshness":"FRESH","line1":"1 57117U 23090S   26263.46061028  .00002545  00000+0  10192-3 0  9992","line2":"2 57117  43.0029 261.2843 0001392 271.2574  88.8119 15.27596316180111","mean_motion":15.27596316,"eccentricity":0.0001392,"inclination_deg":43.0029,"raan_deg":261.2843,"arg_perigee_deg":271.2574,"mean_anomaly_deg":88.8119,"bstar":0.00010192,"rev_number":18011,"period_min":94.265741866322,"perigee_km":482.04517019698,"apogee_km":483.95531080473,"semimajor_km":6861.1372405009,"source":"CELESTRAK","updated_at":"2026-09-21T09:00:33.561323Z"}}}